Year,Month,Day,Hour,Minute,Value (Times are PST for temperature in C)
2009,07,27,00,00,20.30
2009,07,27,00,01,20.30
2009,07,27,00,02,20.30
2009,07,27,00,03,20.30
2009,07,27,00,04,20.30
2009,07,27,00,05,20.30
2009,07,27,00,06,20.30
2009,07,27,00,07,20.20
2009,07,27,00,08,20.20
2009,07,27,00,09,20.20
2009,07,27,00,10,20.20
2009,07,27,00,11,20.20
2009,07,27,00,12,20.20
2009,07,27,00,13,20.20
2009,07,27,00,14,20.20
2009,07,27,00,15,20.20
2009,07,27,00,16,20.20
2009,07,27,00,17,20.20
2009,07,27,00,18,20.10
2009,07,27,00,19,20.10
2009,07,27,00,20,20.10
2009,07,27,00,21,19.90
2009,07,27,00,22,19.90
2009,07,27,00,23,19.90
2009,07,27,00,24,19.90
2009,07,27,00,25,19.90
2009,07,27,00,26,19.90
2009,07,27,00,27,19.80
2009,07,27,00,28,19.80
2009,07,27,00,29,19.80
2009,07,27,00,30,19.80
2009,07,27,00,31,19.80
2009,07,27,00,32,19.70
2009,07,27,00,33,19.70
2009,07,27,00,34,19.70
2009,07,27,00,35,19.70
2009,07,27,00,36,19.70
2009,07,27,00,37,19.70
2009,07,27,00,38,19.70
2009,07,27,00,39,19.60
2009,07,27,00,40,19.60
2009,07,27,00,41,19.60
2009,07,27,00,42,19.60
2009,07,27,00,43,19.60
2009,07,27,00,44,19.50
2009,07,27,00,45,19.50
2009,07,27,00,46,19.50
2009,07,27,00,47,19.50
2009,07,27,00,48,19.50
2009,07,27,00,49,19.50
2009,07,27,00,50,19.50
2009,07,27,00,51,19.40
2009,07,27,00,52,19.40
2009,07,27,00,53,19.40
2009,07,27,00,54,19.40
2009,07,27,00,55,19.40
2009,07,27,00,56,19.50
2009,07,27,00,57,19.50
2009,07,27,00,58,19.50
2009,07,27,00,59,19.50
2009,07,27,01,00,19.50
2009,07,27,01,01,19.50
2009,07,27,01,02,19.50
2009,07,27,01,03,19.50
2009,07,27,01,04,19.50
2009,07,27,01,05,19.50
2009,07,27,01,06,19.50
2009,07,27,01,07,19.50
2009,07,27,01,08,19.50
2009,07,27,01,09,19.50
2009,07,27,01,10,19.50
2009,07,27,01,11,19.50
2009,07,27,01,12,19.50
2009,07,27,01,13,19.50
2009,07,27,01,14,19.50
2009,07,27,01,15,19.50
2009,07,27,01,16,19.50
2009,07,27,01,17,19.50
2009,07,27,01,18,19.50
2009,07,27,01,19,19.50
2009,07,27,01,20,19.50
2009,07,27,01,21,19.60
2009,07,27,01,22,19.60
2009,07,27,01,23,19.60
2009,07,27,01,24,19.60
2009,07,27,01,25,19.60
2009,07,27,01,26,19.60
2009,07,27,01,27,19.60
2009,07,27,01,28,19.60
2009,07,27,01,29,19.70
2009,07,27,01,30,19.70
2009,07,27,01,31,19.70
2009,07,27,01,32,19.70
2009,07,27,01,33,19.70
2009,07,27,01,34,19.70
2009,07,27,01,35,19.70
2009,07,27,01,36,19.70
2009,07,27,01,37,19.70
2009,07,27,01,38,19.70
2009,07,27,01,39,19.70
2009,07,27,01,40,19.70
2009,07,27,01,41,19.70
2009,07,27,01,42,19.70
2009,07,27,01,43,19.70
2009,07,27,01,44,19.70
2009,07,27,01,45,19.70
2009,07,27,01,46,19.70
2009,07,27,01,47,19.60
2009,07,27,01,48,19.60
2009,07,27,01,49,19.60
2009,07,27,01,50,19.60
2009,07,27,01,51,19.60
2009,07,27,01,52,19.60
2009,07,27,01,53,19.70
2009,07,27,01,54,19.70
2009,07,27,01,55,19.70
2009,07,27,01,56,19.70
2009,07,27,01,57,19.80
2009,07,27,01,58,19.80
2009,07,27,01,59,19.80
2009,07,27,02,00,19.90
2009,07,27,02,01,19.90
2009,07,27,02,02,19.90
2009,07,27,02,03,19.90
2009,07,27,02,04,19.90
2009,07,27,02,05,20.00
2009,07,27,02,06,20.10
2009,07,27,02,07,20.10
2009,07,27,02,08,20.10
2009,07,27,02,09,20.10
2009,07,27,02,10,20.10
2009,07,27,02,11,20.10
2009,07,27,02,12,20.10
2009,07,27,02,13,20.10
2009,07,27,02,14,20.10
2009,07,27,02,15,20.10
2009,07,27,02,16,20.10
2009,07,27,02,17,20.10
2009,07,27,02,18,20.10
2009,07,27,02,19,20.10
2009,07,27,02,20,20.10
2009,07,27,02,21,19.90
2009,07,27,02,22,19.90
2009,07,27,02,23,19.90
2009,07,27,02,24,19.90
2009,07,27,02,25,19.90
2009,07,27,02,26,19.90
2009,07,27,02,27,19.90
2009,07,27,02,28,19.90
2009,07,27,02,29,19.90
2009,07,27,02,30,19.90
2009,07,27,02,31,19.90
2009,07,27,02,32,19.90
2009,07,27,02,33,19.90
2009,07,27,02,34,19.90
2009,07,27,02,35,19.90
2009,07,27,02,36,19.90
2009,07,27,02,37,19.90
2009,07,27,02,38,19.90
2009,07,27,02,39,19.90
2009,07,27,02,40,19.90
2009,07,27,02,41,19.90
2009,07,27,02,42,19.90
2009,07,27,02,43,19.90
2009,07,27,02,44,19.90
2009,07,27,02,45,19.90
2009,07,27,02,46,19.90
2009,07,27,02,47,19.90
2009,07,27,02,48,19.90
2009,07,27,02,49,19.90
2009,07,27,02,50,19.90
2009,07,27,02,51,19.90
2009,07,27,02,52,19.90
2009,07,27,02,53,19.90
2009,07,27,02,54,20.00
2009,07,27,02,55,20.10
2009,07,27,02,56,20.10
2009,07,27,02,57,20.10
2009,07,27,02,58,20.10
2009,07,27,02,59,20.10
2009,07,27,03,00,20.10
2009,07,27,03,01,20.10
2009,07,27,03,02,20.20
2009,07,27,03,03,20.20
2009,07,27,03,04,20.20
2009,07,27,03,05,20.20
2009,07,27,03,06,20.20
2009,07,27,03,07,20.20
2009,07,27,03,08,20.20
2009,07,27,03,09,20.20
2009,07,27,03,10,20.20
2009,07,27,03,11,20.20
2009,07,27,03,12,20.20
2009,07,27,03,13,20.20
2009,07,27,03,14,20.20
2009,07,27,03,15,20.20
2009,07,27,03,16,20.20
2009,07,27,03,17,20.20
2009,07,27,03,18,20.20
2009,07,27,03,19,20.20
2009,07,27,03,20,20.20
2009,07,27,03,21,20.20
2009,07,27,03,22,20.20
2009,07,27,03,23,20.20
2009,07,27,03,24,20.20
2009,07,27,03,25,20.20
2009,07,27,03,26,20.20
2009,07,27,03,27,20.20
2009,07,27,03,28,20.20
2009,07,27,03,29,20.20
2009,07,27,03,30,20.20
2009,07,27,03,31,20.20
2009,07,27,03,32,20.20
2009,07,27,03,33,20.20
2009,07,27,03,34,20.20
2009,07,27,03,35,20.20
2009,07,27,03,36,20.20
2009,07,27,03,37,20.30
2009,07,27,03,38,20.30
2009,07,27,03,39,20.30
2009,07,27,03,40,20.30
2009,07,27,03,41,20.30
2009,07,27,03,42,20.30
2009,07,27,03,43,20.30
2009,07,27,03,44,20.30
2009,07,27,03,45,20.30
2009,07,27,03,46,20.30
2009,07,27,03,47,20.30
2009,07,27,03,48,20.30
2009,07,27,03,49,20.30
2009,07,27,03,50,20.30
2009,07,27,03,51,20.30
2009,07,27,03,52,20.30
2009,07,27,03,53,20.30
2009,07,27,03,54,20.30
2009,07,27,03,55,20.30
2009,07,27,03,56,20.30
2009,07,27,03,57,20.30
2009,07,27,03,58,20.30
2009,07,27,03,59,20.30
2009,07,27,04,00,20.40
2009,07,27,04,01,20.40
2009,07,27,04,02,20.40
2009,07,27,04,03,20.40
2009,07,27,04,04,20.40
2009,07,27,04,05,20.40
2009,07,27,04,06,20.40
2009,07,27,04,07,20.40
2009,07,27,04,08,20.40
2009,07,27,04,09,20.40
2009,07,27,04,10,20.40
2009,07,27,04,11,20.40
2009,07,27,04,12,20.40
2009,07,27,04,13,20.40
2009,07,27,04,14,20.40
2009,07,27,04,15,20.40
2009,07,27,04,16,20.40
2009,07,27,04,17,20.40
2009,07,27,04,18,20.40
2009,07,27,04,19,20.40
2009,07,27,04,20,20.40
2009,07,27,04,21,20.40
2009,07,27,04,22,20.40
2009,07,27,04,23,20.40
2009,07,27,04,24,20.40
2009,07,27,04,25,20.40
2009,07,27,04,26,20.40
2009,07,27,04,27,20.40
2009,07,27,04,28,20.40
2009,07,27,04,29,20.40
2009,07,27,04,30,20.40
2009,07,27,04,31,20.40
2009,07,27,04,32,20.40
2009,07,27,04,33,20.30
2009,07,27,04,34,20.30
2009,07,27,04,35,20.30
2009,07,27,04,36,20.30
2009,07,27,04,37,20.30
2009,07,27,04,38,20.30
2009,07,27,04,39,20.30
2009,07,27,04,40,20.30
2009,07,27,04,41,20.20
2009,07,27,04,42,20.20
2009,07,27,04,43,20.20
2009,07,27,04,44,20.20
2009,07,27,04,45,20.20
2009,07,27,04,46,20.20
2009,07,27,04,47,20.20
2009,07,27,04,48,20.20
2009,07,27,04,49,20.20
2009,07,27,04,50,20.20
2009,07,27,04,51,20.20
2009,07,27,04,52,20.20
2009,07,27,04,53,20.20
2009,07,27,04,54,20.20
2009,07,27,04,55,20.20
2009,07,27,04,56,20.20
2009,07,27,04,57,20.20
2009,07,27,04,58,20.20
2009,07,27,04,59,20.20
2009,07,27,05,00,20.20
2009,07,27,05,01,20.20
2009,07,27,05,02,20.20
2009,07,27,05,03,20.20
2009,07,27,05,04,20.20
2009,07,27,05,05,20.20
2009,07,27,05,06,20.20
2009,07,27,05,07,20.20
2009,07,27,05,08,20.20
2009,07,27,05,09,20.20
2009,07,27,05,10,20.20
2009,07,27,05,11,20.20
2009,07,27,05,12,20.20
2009,07,27,05,13,20.20
2009,07,27,05,14,20.20
2009,07,27,05,15,20.10
2009,07,27,05,16,20.10
2009,07,27,05,17,20.10
2009,07,27,05,18,20.10
2009,07,27,05,19,20.00
2009,07,27,05,20,19.90
2009,07,27,05,21,19.90
2009,07,27,05,22,19.90
2009,07,27,05,23,19.90
2009,07,27,05,24,19.90
2009,07,27,05,25,19.90
2009,07,27,05,26,19.90
2009,07,27,05,27,19.80
2009,07,27,05,28,19.80
2009,07,27,05,29,19.80
2009,07,27,05,30,19.80
2009,07,27,05,31,19.70
2009,07,27,05,32,19.70
2009,07,27,05,33,19.70
2009,07,27,05,34,19.70
2009,07,27,05,35,19.70
2009,07,27,05,36,19.70
2009,07,27,05,37,19.70
2009,07,27,05,38,19.70
2009,07,27,05,39,19.70
2009,07,27,05,40,19.70
2009,07,27,05,41,19.70
2009,07,27,05,42,19.70
2009,07,27,05,43,19.70
2009,07,27,05,44,19.70
2009,07,27,05,45,19.60
2009,07,27,05,46,19.60
2009,07,27,05,47,19.60
2009,07,27,05,48,19.60
2009,07,27,05,49,19.60
2009,07,27,05,50,19.60
2009,07,27,05,51,19.60
2009,07,27,05,52,19.50
2009,07,27,05,53,19.50
2009,07,27,05,54,19.50
2009,07,27,05,55,19.50
2009,07,27,05,56,19.50
2009,07,27,05,57,19.40
2009,07,27,05,58,19.40
2009,07,27,05,59,19.40
2009,07,27,06,00,19.40
2009,07,27,06,01,19.40
2009,07,27,06,02,19.40
2009,07,27,06,03,19.40
2009,07,27,06,04,19.40
2009,07,27,06,05,19.40
2009,07,27,06,06,19.40
2009,07,27,06,07,19.40
2009,07,27,06,08,19.40
2009,07,27,06,09,19.30
2009,07,27,06,10,19.30
2009,07,27,06,11,19.30
2009,07,27,06,12,19.30
2009,07,27,06,13,19.30
2009,07,27,06,14,19.30
2009,07,27,06,15,19.20
2009,07,27,06,16,19.20
2009,07,27,06,17,19.20
2009,07,27,06,18,19.20
2009,07,27,06,19,19.20
2009,07,27,06,20,19.20
2009,07,27,06,21,19.20
2009,07,27,06,22,19.20
2009,07,27,06,23,19.10
2009,07,27,06,24,19.10
2009,07,27,06,25,19.10
2009,07,27,06,26,19.10
2009,07,27,06,27,19.10
2009,07,27,06,28,19.10
2009,07,27,06,29,19.10
2009,07,27,06,30,19.10
2009,07,27,06,31,19.10
2009,07,27,06,32,19.10
2009,07,27,06,33,19.10
2009,07,27,06,34,19.10
2009,07,27,06,35,19.10
2009,07,27,06,36,19.10
2009,07,27,06,37,19.10
2009,07,27,06,38,19.10
2009,07,27,06,39,19.10
2009,07,27,06,40,19.10
2009,07,27,06,41,19.20
2009,07,27,06,42,19.20
2009,07,27,06,43,19.20
2009,07,27,06,44,19.20
2009,07,27,06,45,19.20
2009,07,27,06,46,19.20
2009,07,27,06,47,19.20
2009,07,27,06,48,19.30
2009,07,27,06,49,19.30
2009,07,27,06,50,19.30
2009,07,27,06,51,19.30
2009,07,27,06,52,19.30
2009,07,27,06,53,19.40
2009,07,27,06,54,19.40
2009,07,27,06,55,19.40
2009,07,27,06,56,19.50
2009,07,27,06,57,19.50
2009,07,27,06,58,19.50
2009,07,27,06,59,19.60
2009,07,27,07,00,19.60
2009,07,27,07,01,19.60
2009,07,27,07,02,19.70
2009,07,27,07,03,19.70
2009,07,27,07,04,19.70
2009,07,27,07,05,19.80
2009,07,27,07,06,19.80
2009,07,27,07,07,19.90
2009,07,27,07,08,19.90
2009,07,27,07,09,20.00
2009,07,27,07,10,20.10
2009,07,27,07,11,20.10
2009,07,27,07,12,20.20
2009,07,27,07,13,20.20
2009,07,27,07,14,20.20
2009,07,27,07,15,20.20
2009,07,27,07,16,20.20
2009,07,27,07,17,20.20
2009,07,27,07,18,20.20
2009,07,27,07,19,20.20
2009,07,27,07,20,20.30
2009,07,27,07,21,20.30
2009,07,27,07,22,20.30
2009,07,27,07,23,20.30
2009,07,27,07,24,20.40
2009,07,27,07,25,20.50
2009,07,27,07,26,20.50
2009,07,27,07,27,20.60
2009,07,27,07,28,20.60
2009,07,27,07,29,20.70
2009,07,27,07,30,20.70
2009,07,27,07,31,20.80
2009,07,27,07,32,20.80
2009,07,27,07,33,20.90
2009,07,27,07,34,20.90
2009,07,27,07,35,20.90
2009,07,27,07,36,21.00
2009,07,27,07,37,21.00
2009,07,27,07,38,21.00
2009,07,27,07,39,21.10
2009,07,27,07,40,21.20
2009,07,27,07,41,21.30
2009,07,27,07,42,21.30
2009,07,27,07,43,21.30
2009,07,27,07,44,21.30
2009,07,27,07,45,21.30
2009,07,27,07,46,21.30
2009,07,27,07,47,21.40
2009,07,27,07,48,21.40
2009,07,27,07,49,21.40
2009,07,27,07,50,21.40
2009,07,27,07,51,21.50
2009,07,27,07,52,21.60
2009,07,27,07,53,21.60
2009,07,27,07,54,21.70
2009,07,27,07,55,21.70
2009,07,27,07,56,21.80
2009,07,27,07,57,21.90
2009,07,27,07,58,21.90
2009,07,27,07,59,21.90
2009,07,27,08,00,21.90
2009,07,27,08,01,21.90
2009,07,27,08,02,21.90
2009,07,27,08,03,21.90
2009,07,27,08,04,21.90
2009,07,27,08,05,21.90
2009,07,27,08,06,21.90
2009,07,27,08,07,22.00
2009,07,27,08,08,22.00
2009,07,27,08,09,22.00
2009,07,27,08,10,22.00
2009,07,27,08,11,22.10
2009,07,27,08,12,22.10
2009,07,27,08,13,22.20
2009,07,27,08,14,22.20
2009,07,27,08,15,22.20
2009,07,27,08,16,22.30
2009,07,27,08,17,22.30
2009,07,27,08,18,22.40
2009,07,27,08,19,22.40
2009,07,27,08,20,22.50
2009,07,27,08,21,22.60
2009,07,27,08,22,22.60
2009,07,27,08,23,22.70
2009,07,27,08,24,22.80
2009,07,27,08,25,22.90
2009,07,27,08,26,23.00
2009,07,27,08,27,23.10
2009,07,27,08,28,23.20
2009,07,27,08,29,23.30
2009,07,27,08,30,23.30
2009,07,27,08,31,23.40
2009,07,27,08,32,23.40
2009,07,27,08,33,23.50
2009,07,27,08,34,23.60
2009,07,27,08,35,23.70
2009,07,27,08,36,23.70
2009,07,27,08,37,23.70
2009,07,27,08,38,23.70
2009,07,27,08,39,23.70
2009,07,27,08,40,23.80
2009,07,27,08,41,23.80
2009,07,27,08,42,23.90
2009,07,27,08,43,23.90
2009,07,27,08,44,24.00
2009,07,27,08,45,24.10
2009,07,27,08,46,24.10
2009,07,27,08,47,24.10
2009,07,27,08,48,24.10
2009,07,27,08,49,24.20
2009,07,27,08,50,24.30
2009,07,27,08,51,24.40
2009,07,27,08,52,24.40
2009,07,27,08,53,24.50
2009,07,27,08,54,24.60
2009,07,27,08,55,24.60
2009,07,27,08,56,24.70
2009,07,27,08,57,24.70
2009,07,27,08,58,24.80
2009,07,27,08,59,24.80
2009,07,27,09,00,24.90
2009,07,27,09,01,24.90
2009,07,27,09,02,25.00
2009,07,27,09,03,25.00
2009,07,27,09,04,25.10
2009,07,27,09,05,25.10
2009,07,27,09,06,25.10
2009,07,27,09,07,25.10
2009,07,27,09,08,25.20
2009,07,27,09,09,25.20
2009,07,27,09,10,25.10
2009,07,27,09,11,25.10
2009,07,27,09,12,25.10
2009,07,27,09,13,25.10
2009,07,27,09,14,25.10
2009,07,27,09,15,25.10
2009,07,27,09,16,25.20
2009,07,27,09,17,25.20
2009,07,27,09,18,25.20
2009,07,27,09,19,25.20
2009,07,27,09,20,25.20
2009,07,27,09,21,25.20
2009,07,27,09,22,25.20
2009,07,27,09,23,25.20
2009,07,27,09,24,25.30
2009,07,27,09,25,25.30
2009,07,27,09,26,25.30
2009,07,27,09,27,25.30
2009,07,27,09,28,25.40
2009,07,27,09,29,25.40
2009,07,27,09,30,25.40
2009,07,27,09,31,25.40
2009,07,27,09,32,25.40
2009,07,27,09,33,25.40
2009,07,27,09,34,25.50
2009,07,27,09,35,25.50
2009,07,27,09,36,25.50
2009,07,27,09,37,25.50
2009,07,27,09,38,25.50
2009,07,27,09,39,25.60
2009,07,27,09,40,25.60
2009,07,27,09,41,25.70
2009,07,27,09,42,25.70
2009,07,27,09,43,25.70
2009,07,27,09,44,25.80
2009,07,27,09,45,25.80
2009,07,27,09,46,25.80
2009,07,27,09,47,25.80
2009,07,27,09,48,25.90
2009,07,27,09,49,25.90
2009,07,27,09,50,26.00
2009,07,27,09,51,26.00
2009,07,27,09,52,26.10
2009,07,27,09,53,26.20
2009,07,27,09,54,26.30
2009,07,27,09,55,26.40
2009,07,27,09,56,26.40
2009,07,27,09,57,26.50
2009,07,27,09,58,26.60
2009,07,27,09,59,26.60
2009,07,27,10,00,26.60
2009,07,27,10,01,26.60
2009,07,27,10,02,26.60
2009,07,27,10,03,26.60
2009,07,27,10,04,26.60
2009,07,27,10,05,26.70
2009,07,27,10,06,26.70
2009,07,27,10,07,26.80
2009,07,27,10,08,26.80
2009,07,27,10,09,26.80
2009,07,27,10,10,26.90
2009,07,27,10,11,26.90
2009,07,27,10,12,26.90
2009,07,27,10,13,26.90
2009,07,27,10,14,27.00
2009,07,27,10,15,27.10
2009,07,27,10,16,27.10
2009,07,27,10,17,27.10
2009,07,27,10,18,27.10
2009,07,27,10,19,27.10
2009,07,27,10,20,27.00
2009,07,27,10,21,26.90
2009,07,27,10,22,26.80
2009,07,27,10,23,26.80
2009,07,27,10,24,26.90
2009,07,27,10,25,26.90
2009,07,27,10,26,27.00
2009,07,27,10,27,27.20
2009,07,27,10,28,27.20
2009,07,27,10,29,27.30
2009,07,27,10,30,27.30
2009,07,27,10,31,27.30
2009,07,27,10,32,27.30
2009,07,27,10,33,27.30
2009,07,27,10,34,27.30
2009,07,27,10,35,27.30
2009,07,27,10,36,27.40
2009,07,27,10,37,27.50
2009,07,27,10,38,27.60
2009,07,27,10,39,27.60
2009,07,27,10,40,27.70
2009,07,27,10,41,27.70
2009,07,27,10,42,27.70
2009,07,27,10,43,27.70
2009,07,27,10,44,27.70
2009,07,27,10,45,27.70
2009,07,27,10,46,27.80
2009,07,27,10,47,27.80
2009,07,27,10,48,27.80
2009,07,27,10,49,27.80
2009,07,27,10,50,27.80
2009,07,27,10,51,27.80
2009,07,27,10,52,27.80
2009,07,27,10,53,27.80
2009,07,27,10,54,27.90
2009,07,27,10,55,27.90
2009,07,27,10,56,28.00
2009,07,27,10,57,28.10
2009,07,27,10,58,28.10
2009,07,27,10,59,28.20
2009,07,27,11,00,28.20
2009,07,27,11,01,28.20
2009,07,27,11,02,28.10
2009,07,27,11,03,28.10
2009,07,27,11,04,28.10
2009,07,27,11,05,28.00
2009,07,27,11,06,28.10
2009,07,27,11,07,28.10
2009,07,27,11,08,28.20
2009,07,27,11,09,28.20
2009,07,27,11,10,28.30
2009,07,27,11,11,28.40
2009,07,27,11,12,28.40
2009,07,27,11,13,28.40
2009,07,27,11,14,28.40
2009,07,27,11,15,28.40
2009,07,27,11,16,28.40
2009,07,27,11,17,28.40
2009,07,27,11,18,28.40
2009,07,27,11,19,28.40
2009,07,27,11,20,28.40
2009,07,27,11,21,28.60
2009,07,27,11,22,28.50
2009,07,27,11,23,28.40
2009,07,27,11,24,28.30
2009,07,27,11,25,28.30
2009,07,27,11,26,28.40
2009,07,27,11,27,28.40
2009,07,27,11,28,28.40
2009,07,27,11,29,28.40
2009,07,27,11,30,28.40
2009,07,27,11,31,28.50
2009,07,27,11,32,28.60
2009,07,27,11,33,28.60
2009,07,27,11,34,28.60
2009,07,27,11,35,28.60
2009,07,27,11,36,28.60
2009,07,27,11,37,28.60
2009,07,27,11,38,28.60
2009,07,27,11,39,28.60
2009,07,27,11,40,28.70
2009,07,27,11,41,28.70
2009,07,27,11,42,28.80
2009,07,27,11,43,28.80
2009,07,27,11,44,28.90
2009,07,27,11,45,28.90
2009,07,27,11,46,28.90
2009,07,27,11,47,28.90
2009,07,27,11,48,29.00
2009,07,27,11,49,29.10
2009,07,27,11,50,29.20
2009,07,27,11,51,29.20
2009,07,27,11,52,29.20
2009,07,27,11,53,29.20
2009,07,27,11,54,29.20
2009,07,27,11,55,29.20
2009,07,27,11,56,29.20
2009,07,27,11,57,29.30
2009,07,27,11,58,29.30
2009,07,27,11,59,29.30
2009,07,27,12,00,29.40
2009,07,27,12,01,29.40
2009,07,27,12,02,29.40
2009,07,27,12,03,29.40
2009,07,27,12,04,29.40
2009,07,27,12,05,29.40
2009,07,27,12,06,29.30
2009,07,27,12,07,29.30
2009,07,27,12,08,29.20
2009,07,27,12,09,29.20
2009,07,27,12,10,29.20
2009,07,27,12,11,29.20
2009,07,27,12,12,29.20
2009,07,27,12,13,29.20
2009,07,27,12,14,29.20
2009,07,27,12,15,29.30
2009,07,27,12,16,29.30
2009,07,27,12,17,29.40
2009,07,27,12,18,29.40
2009,07,27,12,19,29.50
2009,07,27,12,20,29.50
2009,07,27,12,21,29.50
2009,07,27,12,22,29.50
2009,07,27,12,23,29.50
2009,07,27,12,24,29.50
2009,07,27,12,25,29.50
2009,07,27,12,26,29.50
2009,07,27,12,27,29.40
2009,07,27,12,28,29.40
2009,07,27,12,29,29.50
2009,07,27,12,30,29.50
2009,07,27,12,31,29.50
2009,07,27,12,32,29.50
2009,07,27,12,33,29.50
2009,07,27,12,34,29.60
2009,07,27,12,35,29.60
2009,07,27,12,36,29.70
2009,07,27,12,37,29.70
2009,07,27,12,38,29.70
2009,07,27,12,39,29.70
2009,07,27,12,40,29.70
2009,07,27,12,41,29.80
2009,07,27,12,42,29.90
2009,07,27,12,43,30.00
2009,07,27,12,44,30.10
2009,07,27,12,45,30.10
2009,07,27,12,46,30.10
2009,07,27,12,47,30.10
2009,07,27,12,48,30.10
2009,07,27,12,49,30.10
2009,07,27,12,50,30.20
2009,07,27,12,51,30.30
2009,07,27,12,52,30.30
2009,07,27,12,53,30.30
2009,07,27,12,54,30.40
2009,07,27,12,55,30.40
2009,07,27,12,56,30.40
2009,07,27,12,57,30.40
2009,07,27,12,58,30.40
2009,07,27,12,59,30.60
2009,07,27,13,00,30.60
2009,07,27,13,01,30.70
2009,07,27,13,02,30.70
2009,07,27,13,03,30.80
2009,07,27,13,04,30.90
2009,07,27,13,05,30.90
2009,07,27,13,06,31.00
2009,07,27,13,07,30.90
2009,07,27,13,08,30.90
2009,07,27,13,09,30.90
2009,07,27,13,10,30.90
2009,07,27,13,11,31.00
2009,07,27,13,12,31.10
2009,07,27,13,13,31.10
2009,07,27,13,14,31.00
2009,07,27,13,15,31.00
2009,07,27,13,16,31.10
2009,07,27,13,17,31.10
2009,07,27,13,18,31.10
2009,07,27,13,19,31.10
2009,07,27,13,20,31.10
2009,07,27,13,21,31.10
2009,07,27,13,22,31.10
2009,07,27,13,23,31.10
2009,07,27,13,24,31.00
2009,07,27,13,25,31.00
2009,07,27,13,26,31.10
2009,07,27,13,27,31.10
2009,07,27,13,28,31.00
2009,07,27,13,29,31.10
2009,07,27,13,30,31.10
2009,07,27,13,31,31.10
2009,07,27,13,32,31.10
2009,07,27,13,33,31.20
2009,07,27,13,34,31.20
2009,07,27,13,35,31.10
2009,07,27,13,36,31.10
2009,07,27,13,37,31.10
2009,07,27,13,38,31.10
2009,07,27,13,39,31.10
2009,07,27,13,40,31.00
2009,07,27,13,41,31.00
2009,07,27,13,42,31.00
2009,07,27,13,43,31.00
2009,07,27,13,44,31.10
2009,07,27,13,45,31.20
2009,07,27,13,46,31.20
2009,07,27,13,47,31.30
2009,07,27,13,48,31.30
2009,07,27,13,49,31.40
2009,07,27,13,50,31.40
2009,07,27,13,51,31.50
2009,07,27,13,52,31.60
2009,07,27,13,53,31.60
2009,07,27,13,54,31.60
2009,07,27,13,55,31.60
2009,07,27,13,56,31.70
2009,07,27,13,57,31.80
2009,07,27,13,58,31.90
2009,07,27,13,59,32.00
2009,07,27,14,00,32.10
2009,07,27,14,01,32.10
2009,07,27,14,02,32.20
2009,07,27,14,03,32.20
2009,07,27,14,04,32.20
2009,07,27,14,05,32.20
2009,07,27,14,06,32.20
2009,07,27,14,07,32.30
2009,07,27,14,08,32.30
2009,07,27,14,09,32.30
2009,07,27,14,10,32.30
2009,07,27,14,11,32.30
2009,07,27,14,12,32.30
2009,07,27,14,13,32.40
2009,07,27,14,14,32.50
2009,07,27,14,15,32.50
2009,07,27,14,16,32.50
2009,07,27,14,17,32.50
2009,07,27,14,18,32.50
2009,07,27,14,19,32.50
2009,07,27,14,20,32.50
2009,07,27,14,21,32.50
2009,07,27,14,22,32.50
2009,07,27,14,23,32.40
2009,07,27,14,24,32.30
2009,07,27,14,25,32.30
2009,07,27,14,26,32.30
2009,07,27,14,27,32.40
2009,07,27,14,28,32.40
2009,07,27,14,29,32.50
2009,07,27,14,30,32.50
2009,07,27,14,31,32.50
2009,07,27,14,32,32.50
2009,07,27,14,33,32.50
2009,07,27,14,34,32.60
2009,07,27,14,35,32.60
2009,07,27,14,36,32.60
2009,07,27,14,37,32.60
2009,07,27,14,38,32.60
2009,07,27,14,39,32.60
2009,07,27,14,40,32.60
2009,07,27,14,41,32.60
2009,07,27,14,42,32.60
2009,07,27,14,43,32.60
2009,07,27,14,44,32.60
2009,07,27,14,45,32.70
2009,07,27,14,46,32.80
2009,07,27,14,47,32.90
2009,07,27,14,48,32.90
2009,07,27,14,49,33.00
2009,07,27,14,50,33.00
2009,07,27,14,51,33.10
2009,07,27,14,52,33.10
2009,07,27,14,53,33.20
2009,07,27,14,54,33.20
2009,07,27,14,55,33.20
2009,07,27,14,56,33.20
2009,07,27,14,57,33.20
2009,07,27,14,58,33.10
2009,07,27,14,59,33.10
2009,07,27,15,00,33.10
2009,07,27,15,01,33.10
2009,07,27,15,02,33.10
2009,07,27,15,03,33.20
2009,07,27,15,04,33.20
2009,07,27,15,05,33.20
2009,07,27,15,06,33.20
2009,07,27,15,07,33.20
2009,07,27,15,08,33.20
2009,07,27,15,09,33.30
2009,07,27,15,10,33.40
2009,07,27,15,11,33.50
2009,07,27,15,12,33.50
2009,07,27,15,13,33.50
2009,07,27,15,14,33.50
2009,07,27,15,15,33.60
2009,07,27,15,16,33.60
2009,07,27,15,17,33.70
2009,07,27,15,18,33.80
2009,07,27,15,19,33.80
2009,07,27,15,20,33.90
2009,07,27,15,21,34.00
2009,07,27,15,22,34.00
2009,07,27,15,23,34.00
2009,07,27,15,24,34.00
2009,07,27,15,25,34.00
2009,07,27,15,26,34.10
2009,07,27,15,27,34.10
2009,07,27,15,28,34.10
2009,07,27,15,29,34.10
2009,07,27,15,30,34.10
2009,07,27,15,31,34.10
2009,07,27,15,32,34.10
2009,07,27,15,33,34.10
2009,07,27,15,34,34.10
2009,07,27,15,35,34.20
2009,07,27,15,36,34.10
2009,07,27,15,37,34.10
2009,07,27,15,38,34.10
2009,07,27,15,39,34.10
2009,07,27,15,40,34.10
2009,07,27,15,41,34.10
2009,07,27,15,42,34.20
2009,07,27,15,43,34.20
2009,07,27,15,44,34.20
2009,07,27,15,45,34.10
2009,07,27,15,46,34.10
2009,07,27,15,47,34.10
2009,07,27,15,48,34.10
2009,07,27,15,49,34.00
2009,07,27,15,50,33.90
2009,07,27,15,51,33.80
2009,07,27,15,52,33.80
2009,07,27,15,53,33.80
2009,07,27,15,54,33.70
2009,07,27,15,55,33.70
2009,07,27,15,56,33.70
2009,07,27,15,57,33.70
2009,07,27,15,58,33.70
2009,07,27,15,59,33.70
2009,07,27,16,00,33.70
2009,07,27,16,01,33.60
2009,07,27,16,02,33.60
2009,07,27,16,03,33.60
2009,07,27,16,04,33.60
2009,07,27,16,05,33.60
2009,07,27,16,06,33.60
2009,07,27,16,07,33.60
2009,07,27,16,08,33.60
2009,07,27,16,09,33.60
2009,07,27,16,10,33.60
2009,07,27,16,11,33.60
2009,07,27,16,12,33.60
2009,07,27,16,13,33.50
2009,07,27,16,14,33.40
2009,07,27,16,15,33.30
2009,07,27,16,16,33.20
2009,07,27,16,17,33.20
2009,07,27,16,18,33.10
2009,07,27,16,19,33.10
2009,07,27,16,20,33.10
2009,07,27,16,21,33.00
2009,07,27,16,22,33.00
2009,07,27,16,23,33.00
2009,07,27,16,24,33.10
2009,07,27,16,25,33.10
2009,07,27,16,26,33.00
2009,07,27,16,27,33.00
2009,07,27,16,28,33.00
2009,07,27,16,29,33.00
2009,07,27,16,30,32.90
2009,07,27,16,31,32.90
2009,07,27,16,32,32.80
2009,07,27,16,33,32.80
2009,07,27,16,34,32.80
2009,07,27,16,35,32.80
2009,07,27,16,36,32.80
2009,07,27,16,37,32.80
2009,07,27,16,38,32.70
2009,07,27,16,39,32.60
2009,07,27,16,40,32.60
2009,07,27,16,41,32.60
2009,07,27,16,42,32.60
2009,07,27,16,43,32.50
2009,07,27,16,44,32.50
2009,07,27,16,45,32.50
2009,07,27,16,46,32.50
2009,07,27,16,47,32.50
2009,07,27,16,48,32.40
2009,07,27,16,49,32.40
2009,07,27,16,50,32.40
2009,07,27,16,51,32.30
2009,07,27,16,52,32.30
2009,07,27,16,53,32.30
2009,07,27,16,54,32.20
2009,07,27,16,55,32.20
2009,07,27,16,56,32.20
2009,07,27,16,57,32.10
2009,07,27,16,58,32.10
2009,07,27,16,59,32.10
2009,07,27,17,00,32.00
2009,07,27,17,01,31.90
2009,07,27,17,02,31.90
2009,07,27,17,03,31.90
2009,07,27,17,04,31.90
2009,07,27,17,05,31.90
2009,07,27,17,06,31.90
2009,07,27,17,07,31.90
2009,07,27,17,08,31.90
2009,07,27,17,09,31.90
2009,07,27,17,10,31.90
2009,07,27,17,11,31.90
2009,07,27,17,12,31.90
2009,07,27,17,13,31.80
2009,07,27,17,14,31.80
2009,07,27,17,15,31.80
2009,07,27,17,16,31.80
2009,07,27,17,17,31.80
2009,07,27,17,18,31.70
2009,07,27,17,19,31.70